Helicity
47 32 86 147 150 174 205 195 192 221 145 143 96 106 86 44 57 82 96 63 105 110 89 69 8 -5 6 18 23 19 6 4 -8 -4 13 25 20 30 44 42 37 58 84 126
44 81 108 137 136 153 176 160 154 108 91 113 130 132 64 54 73 102 106 98 122 164 119 56 -5 -12 18 30 37 29 19 8 7 19 46 40 29 46 54 42 34 58 92 116
100 141 106 102 96 93 90 111 148 138 113 61 81 -6 75 157 211 235 173 177 210 186 131 49 58 0 30 31 44 30 20 11 25 54 57 57 77 102 126 91 85 74 98 137
113 92 98 111 108 107 69 98 85 85 98 108 112 93 68 92 91 114 177 256 226 195 96 44 24 32 17 33 34 29 21 23 38 65 72 75 107 138 125 103 91 92 91 105
102 74 75 81 110 120 129 94 85 77 74 78 48 89 50 82 97 122 215 261 237 143 79 33 21 49 27 36 34 33 25 33 49 77 92 105 111 95 75 80 97 105 95 76
87 75 91 96 81 92 91 69 63 76 102 80 135 141 41 71 120 182 252 253 168 103 46 13 12 17 31 32 31 36 39 44 73 106 104 92 68 68 68 61 77 88 85 68
50 56 60 64 38 62 74 73 64 53 102 130 109 92 112 114 127 184 215 161 125 50 19 3 3 11 28 33 45 55 60 62 109 136 111 80 64 65 47 55 92 82 103 90
26 32 47 54 61 72 66 82 117 120 153 145 119 104 104 105 158 271 231 168 62 15 -3 -4 -6 7 21 35 54 66 77 90 115 136 117 86 73 94 70 80 97 98 92 78
57 69 108 115 73 66 59 56 92 101 57 43 72 61 56 82 116 169 161 89 29 3 -2 -8 -5 9 24 46 66 74 87 96 120 126 105 84 81 65 83 73 91 102 97 88
86 67 78 73 58 88 103 96 73 74 73 43 46 71 62 51 53 94 101 76 53 1 -15 -13 -2 12 37 65 75 80 85 95 118 110 94 87 83 72 76 83 85 77 85 68
83 82 131 103 72 69 79 88 107 117 112 108 60 50 74 56 87 87 103 46 -67 -57 -44 0 8 26 48 64 75 78 90 108 125 109 77 87 93 94 81 80 78 72 51 43
92 97 108 125 190 155 144 115 90 88 68 118 107 84 104 171 213 228 121 73 3 -66 -19 10 14 29 45 62 69 80 90 113 120 91 66 94 91 95 81 81 68 56 37 36
91 95 81 72 86 92 91 101 104 156 151 130 109 93 105 113 92 94 86 69 1 -74 -4 12 21 33 58 75 75 79 92 104 111 77 66 91 91 95 87 86 65 16 0 8
120 148 143 126 91 118 125 104 112 179 141 90 187 129 129 86 85 78 11 -8 -9 -14 22 22 26 44 62 81 78 85 80 99 94 69 63 83 82 98 99 70 -28 6 47 40
135 155 107 95 70 59 68 80 163 301 272 106 79 83 130 87 124 58 31 30 39 34 11 21 24 38 72 73 78 83 84 91 93 64 54 75 81 107 36 8 14 40 100 62
155 172 153 113 33 14 36 51 44 161 206 133 117 24 72 25 52 91 96 73 44 26 12 29 25 25 58 82 77 83 85 92 88 62 42 61 72 83 26 32 33 80 134 111
144 153 90 36 31 78 46 34 81 106 122 132 75 80 45 61 68 59 59 57 27 19 15 23 21 25 49 79 81 78 83 81 79 53 38 48 58 34 38 56 45 104 177 201
156 166 170 114 108 -16 104 61 72 58 33 79 32 0 9 -4 43 47 22 44 40 16 7 23 31 31 45 75 82 86 78 70 73 54 25 31 56 26 35 73 74 90 173 225
-31 27 197 214 138 106 73 133 110 77 120 -13 -22 14 35 130 136 53 -7 36 16 40 38 39 35 36 43 68 79 81 70 72 62 52 21 14 29 23 50 63 86 33 117 193
17 -12 105 115 154 173 159 18 -32 -75 16 122 74 78 56 35 36 32 19 39 27 47 43 37 35 48 48 58 79 75 65 64 68 48 14 8 8 19 20 70 105 96 39 106
42 61 74 58 88 70 92 62 5 86 152 105 67 42 9 -23 -75 -67 -80 -25 15 32 32 36 40 44 38 54 73 60 63 60 68 42 12 -6 -4 -3 27 58 88 116 62 35
30 44 53 14 62 34 63 -35 -15 -9 -127 -86 -27 -3 -38 -44 -46 -50 -48 -40 20 24 24 22 36 43 37 52 58 54 54 79 59 40 20 -14 -23 -11 10 46 94 74 95 59
37 12 30 48 45 1 -26 -49 -92 -44 24 0 -34 -2 0 7 -5 -26 -30 -24 26 27 21 19 37 36 46 55 49 43 67 68 52 36 27 -1 -40 -48 -3 28 59 75 101 111
14 21 14 5 23 -9 10 15 12 17 17 18 6 26 18 -9 -26 -12 12 15 33 19 19 39 38 36 41 55 46 35 71 64 47 34 26 10 -9 -57 -87 1 48 41 81 85
50 -5 -11 -28 -7 51 44 61 37 29 -8 -32 -23 1 18 7 12 17 31 19 22 10 18 38 41 48 42 53 45 49 67 58 47 37 25 12 2 3 -27 -38 8 69 88 86
91 -30 -23 -21 8 14 48 66 48 30 38 30 8 28 13 13 62 34 19 21 20 9 19 35 47 46 51 66 55 70 70 58 46 35 26 17 8 3 11 7 -13 28 61 124
Wind_Speed
39 38 43 41 44 43 44 48 57 53 50 58 69 77 66 53 54 56 56 56 51 49 47 43 43 48 53 58 65 68 72 74 76 78 83 83 86 87 87 87 90 92 93 93
41 42 37 33 39 43 47 54 62 57 54 61 73 88 75 66 63 58 58 58 49 47 48 46 47 50 55 62 65 69 72 75 76 78 79 83 86 88 89 90 90 90 93 95
47 40 34 41 38 47 48 53 55 60 63 69 77 90 72 64 69 66 55 50 46 47 48 50 47 53 56 61 65 69 71 75 76 79 80 82 85 87 90 91 92 91 93 96
42 36 39 41 42 43 57 43 47 55 58 67 49 77 59 51 55 53 48 46 43 43 45 50 52 55 56 61 64 67 72 75 77 77 80 84 89 96 93 98 97 98 97 98
41 39 41 42 42 44 47 45 49 50 55 61 54 63 61 48 56 46 35 34 37 41 45 51 53 53 57 61 64 67 71 74 75 75 77 81 87 91 95 96 100 99 98 98
40 37 39 39 39 40 38 45 47 48 51 67 49 56 67 52 49 30 27 30 34 40 45 49 53 55 57 57 61 66 71 73 72 72 74 79 87 93 95 96 98 97 98 99
45 42 38 38 40 37 39 45 53 54 52 62 43 51 65 44 36 21 22 30 36 42 48 53 54 56 58 61 63 65 68 74 71 70 72 76 81 87 91 92 94 99 101 101
50 50 40 42 43 45 42 43 49 58 56 55 42 54 45 37 26 21 26 33 41 48 50 53 53 56 59 60 62 65 69 72 69 70 69 72 74 79 81 85 90 95 98 102
42 42 39 44 44 42 39 41 39 54 54 63 54 55 50 36 30 31 33 38 44 49 52 55 54 56 58 58 60 64 69 69 67 65 67 68 70 74 78 82 87 90 95 101
34 39 36 39 40 41 43 39 46 44 59 63 55 57 53 33 27 30 34 38 47 52 55 56 55 55 54 55 57 61 64 64 62 60 61 62 67 71 74 79 84 89 97 102
37 32 37 38 37 48 45 45 44 49 53 63 69 58 43 42 26 30 34 38 48 59 59 57 55 54 53 53 56 61 62 62 59 57 56 59 64 67 72 77 83 88 98 99
38 39 41 39 39 40 43 47 41 53 55 56 65 82 56 48 39 38 41 45 55 65 60 57 55 53 52 52 55 60 61 58 55 54 52 55 60 64 72 78 79 86 93 95
41 40 56 45 40 36 41 42 48 53 58 67 75 69 47 47 50 50 57 62 69 72 61 57 53 50 49 50 53 57 57 55 53 52 49 53 58 64 72 69 84 89 86 87
48 46 42 51 60 54 57 51 46 52 70 77 73 85 72 68 64 64 69 70 73 68 59 55 52 49 47 47 49 53 53 51 51 48 46 51 54 64 57 45 41 77 71 71
48 63 60 65 69 66 62 59 54 55 60 84 86 88 80 69 76 86 88 76 64 56 55 53 50 47 45 45 46 49 49 48 48 46 44 47 49 54 26 42 63 64 56 54
51 71 75 83 78 74 74 62 56 56 55 85 96 104 94 79 59 59 58 53 55 58 58 52 49 47 45 42 43 46 45 44 46 45 41 42 46 40 57 53 56 52 47 45
65 70 79 94 69 77 88 67 59 56 48 60 77 75 68 68 63 63 61 59 61 63 59 51 48 47 43 39 39 43 41 40 45 44 37 38 41 14 52 45 40 29 29 36
66 65 68 85 81 82 61 65 59 60 54 39 53 59 60 63 59 59 55 57 60 61 56 49 47 45 41 37 36 38 37 38 43 43 35 33 35 47 42 32 34 47 40 30
46 56 65 70 73 87 89 56 57 59 67 59 54 55 49 49 56 55 43 50 59 59 53 50 47 44 40 37 36 36 37 39 43 46 36 30 30 47 42 41 39 43 33 25
49 48 53 58 71 73 53 60 63 62 74 58 35 37 43 50 59 58 58 65 66 59 54 51 48 44 41 37 34 34 36 39 44 46 39 30 21 51 41 40 33 40 36 20
62 53 53 59 62 63 62 65 65 68 60 50 47 52 60 64 69 80 78 75 68 62 60 53 49 45 41 37 33 33 34 36 41 42 41 33 21 19 43 40 36 40 35 35
49 49 45 45 52 63 54 70 64 74 73 70 74 78 81 73 77 79 78 75 66 63 60 55 51 46 42 36 33 33 33 35 38 41 42 37 26 5 38 40 42 37 33 30
45 53 55 53 64 86 88 92 94 87 85 87 88 80 78 76 80 81 81 73 64 62 60 54 49 46 39 35 32 34 33 32 37 42 44 40 34 22 15 37 38 38 40 38
45 50 48 65 55 84 92 90 90 84 71 70 81 84 76 84 86 83 77 67 63 60 59 55 50 46 43 35 32 33 32 30 35 41 46 46 41 35 24 13 37 37 39 38
39 58 73 71 78 88 80 95 91 91 85 87 84 79 81 84 82 74 69 65 63 62 58 54 51 46 45 37 33 30 29 29 32 39 44 47 48 48 43 42 20 35 37 37
43 66 65 68 56 55 65 77 74 73 78 76 75 76 76 71 66 60 61 62 61 60 57 52 48 46 43 37 33 29 27 27 30 35 41 44 46 46 46 45 41 42 36 39
Wind_Direction
330 318 306 298 298 295 295 287 277 280 282 277 270 269 272 269 267 266 269 272 276 279 283 289 293 298 301 305 308 311 312 313 313 310 306 305 302 302 302 301 298 295 293 289
323 320 323 325 309 299 292 286 280 281 283 279 276 269 274 270 268 267 268 272 272 277 282 287 293 298 303 307 311 313 314 315 315 313 310 306 303 303 302 301 299 297 293 289
315 321 327 317 320 300 294 287 283 281 283 279 278 273 272 272 270 269 267 268 272 277 283 289 295 299 306 309 313 315 316 317 317 314 311 308 307 305 304 302 300 297 294 290
331 335 323 315 311 311 287 300 293 289 287 278 289 274 278 277 275 271 262 259 269 279 288 293 298 303 307 311 314 316 317 319 318 316 313 310 308 304 305 303 300 297 293 289
330 332 324 317 313 310 301 303 297 294 288 286 283 279 279 284 277 271 258 259 272 283 291 296 302 307 310 312 315 318 320 321 320 318 316 313 310 308 307 305 301 298 295 290
344 345 333 324 325 319 316 306 301 298 291 280 284 280 279 284 282 265 255 268 280 290 297 302 305 309 312 315 318 321 323 323 323 321 319 316 313 311 308 306 303 299 295 290
340 335 337 334 322 327 317 307 293 288 284 281 296 285 280 294 296 260 254 276 287 296 300 303 306 310 312 315 319 323 326 325 326 325 323 320 317 314 309 307 303 298 293 288
342 333 334 326 323 314 312 306 294 286 286 289 298 285 295 301 296 279 281 288 293 297 302 306 309 311 313 317 321 325 327 328 329 328 327 325 322 317 312 308 304 299 293 287
14 352 350 330 322 319 315 306 309 294 295 288 289 292 294 299 286 282 284 291 296 300 304 308 311 312 315 320 324 328 330 331 332 333 330 327 324 320 315 310 306 300 295 287
24 3 4 350 331 321 311 317 302 299 291 286 288 289 288 300 282 280 287 295 301 304 306 309 313 316 319 324 328 332 334 336 338 337 334 331 328 324 319 315 309 302 295 286
3 12 2 355 336 316 313 306 303 300 293 287 283 288 307 304 289 285 289 297 305 305 306 310 314 318 322 326 331 335 339 341 343 342 339 336 332 328 324 319 314 306 295 284
350 348 344 348 343 332 317 305 304 295 293 291 289 282 307 302 297 296 293 297 303 307 306 308 313 318 322 329 334 338 342 346 347 346 343 340 337 335 329 325 321 310 294 283
340 338 331 336 345 343 321 313 300 298 297 288 286 289 315 313 296 294 293 294 297 302 303 306 312 319 325 331 337 342 347 351 352 351 348 345 344 341 337 336 322 301 286 275
325 317 310 311 316 324 312 309 303 293 289 289 283 286 296 300 297 296 296 296 295 297 297 305 311 319 326 334 340 346 352 356 358 357 355 353 352 348 350 345 282 299 283 273
314 308 305 303 304 305 303 300 297 288 288 282 286 287 295 300 293 291 289 292 292 295 300 304 311 320 326 335 343 351 357 2 4 3 2 1 360 358 326 294 300 301 286 279
306 305 307 302 303 300 298 297 293 285 289 285 280 277 287 293 301 303 304 302 296 297 301 305 311 317 325 337 345 354 2 7 10 9 9 9 8 11 305 304 309 302 293 294
303 305 304 299 303 303 296 299 294 292 287 292 286 291 295 297 298 300 301 300 297 297 301 303 309 315 325 338 348 355 7 14 14 15 16 17 17 317 307 307 305 299 295 302
299 300 299 297 300 293 303 303 302 297 296 290 301 299 300 299 301 301 306 304 300 300 302 307 309 313 324 338 349 359 11 17 19 21 23 26 25 299 301 304 315 324 321 311
309 302 299 298 294 292 296 305 303 301 297 299 297 297 300 309 309 302 315 316 309 301 304 305 309 311 320 333 345 358 9 17 21 24 29 33 34 301 300 307 313 326 319 306
324 311 300 302 295 290 304 310 307 301 289 307 299 304 304 309 295 304 314 310 307 303 301 303 307 309 314 327 341 353 5 15 19 25 33 40 50 317 298 303 302 317 323 308
320 314 301 297 294 296 308 311 310 283 284 305 301 300 302 299 297 298 301 304 302 297 295 299 302 305 307 319 335 347 359 12 20 28 36 46 59 258 302 300 299 311 315 329
331 329 325 321 309 301 322 310 298 295 294 292 291 292 293 296 297 299 301 301 299 295 295 296 298 301 302 313 327 339 352 7 19 27 35 47 62 144 295 298 303 304 306 313
340 335 323 316 302 296 300 294 289 293 288 286 285 289 289 291 293 297 297 298 294 296 296 297 298 298 302 309 321 330 344 3 13 19 27 43 59 83 259 299 305 312 320 322
346 341 332 316 320 302 301 300 291 286 287 289 288 286 285 286 288 291 293 294 294 296 296 297 298 297 297 306 314 322 336 355 5 9 11 25 44 64 92 243 312 313 316 319
6 332 308 302 301 298 318 312 301 284 284 283 283 283 283 284 283 288 291 292 294 293 295 296 295 295 294 301 310 320 330 345 356 360 1 6 12 20 42 55 328 318 321 323
16 314 305 296 288 290 294 307 305 293 283 278 273 271 276 280 283 289 292 293 295 293 294 296 295 293 293 299 308 318 327 339 347 353 354 356 360 1 3 7 24 9 334 334